[Iaude] MPEC V94: 2023 VW2 [a=1.92,e=0.53,i=8.2,H=24.3]
    mpec at marsden.cfa.harvard.edu 
    mpec at marsden.cfa.harvard.edu
       
    Tue Nov  7 08:58:18 EST 2023
    
    
  
M.P.E.C. 2023-V94                              Issued 2023 November 7, 13:56 UT
     The Minor Planet Electronic Circulars contain information on unusual
         minor planets, routine data on comets and natural satellites,
         and occasional editorial announcements.  They are published
    on behalf of Division F of the International Astronomical Union by the
          Minor Planet Center, Smithsonian Astrophysical Observatory,
                          Cambridge, MA 02138, U.S.A.
			  
             Prepared using the Tamkin Foundation Computer Network
                              MPC at CFA.HARVARD.EDU
            URL https://www.minorplanetcenter.net/    ISSN 1523-6714
                                    2023 VW2                                    
Observations:
     K23V02W*1C2023 11 05.50103607 21 35.748+10 36 06.84         20.97GVEV094G96
     K23V02W 1C2023 11 05.50619007 21 32.778+10 37 05.63         20.34GVEV094G96
     K23V02W 1C2023 11 05.51135607 21 29.754+10 38 04.96         20.31GVEV094G96
     K23V02W 1C2023 11 05.53231207 21 17.723+10 42 02.09         20.61GVEV094G96
     K23V02W 1C2023 11 05.53272707 21 17.507+10 42 06.41         20.90GVEV094G96
     K23V02W 1C2023 11 05.53314207 21 17.284+10 42 11.38         20.39GVEV094G96
     K23V02W 1C2023 11 06.48875507 13 07.572+13 34 06.56         20.83GVEV094G96
     K23V02W 1C2023 11 06.49025307 13 06.748+13 34 21.61         20.30GVEV094G96
     K23V02W 1C2023 11 06.49175107 13 05.948+13 34 36.77         20.54GVEV094G96
     K23V02W 1C2023 11 06.49325007 13 05.149+13 34 52.46         21.17GVEV094G96
     K23V02W KC2023 11 07.46885607 05 16.040+16 13 11.40         21.12GVEV094I52
     K23V02W KC2023 11 07.47014707 05 15.350+16 13 22.90               VEV094I52
     K23V02W KC2023 11 07.47271807 05 14.040+16 13 46.70               VEV094I52
Observer details:
G96 Mt. Lemmon Survey.  Observer J. B. Fazekas.  Measurers E. C. Beshore, D.
    Fay, J. B. Fazekas, D. C. Fuls, A. R. Gibbs, A. D. Grauer, H. Groeller, J.
    K. Hogan, R. A. Kowalski, S. M. Larson, G. J. Leonard, D. Rankin, R. L.
    Seaman, F. C. Shelly, K. W. Wierzchos.  1.5-m reflector + 10K CCD.
I52 Steward Observatory, Mt. Lemmon Station.  Observer H. Groeller.  Measurers
    E. C. Beshore, D. Fay, J. B. Fazekas, D. C. Fuls, A. R. Gibbs, A. D.
    Grauer, H. Groeller, J. K. Hogan, R. A. Kowalski, S. M. Larson, G. J.
    Leonard, D. Rankin, R. L. Seaman, F. C. Shelly, K. W. Wierzchos.  1.0-m
    prime focus + CCD.
Orbital elements:
2023 VW2                                                 Earth MOID = 0.0253 AU
Epoch 2023 Sept. 13.0 TT = JDT 2460200.5                MPC                     
M 353.47972              (2000.0)            P               Q                  
n   0.36992936     Peri.  307.89208     +0.99359601     +0.01233149             
a   1.9218678      Node    51.68572     +0.04279798     +0.87888782             
e   0.5262775      Incl.    8.22998     -0.10457199     +0.47686909             
P   2.66           H   24.34          G   0.15           U   9                  
Residuals in seconds of arc
231105 G96  0.0   0.4-    231105 G96  0.2+  0.1+    231107 I52  0.0   0.1-
231105 G96  0.0   0.2-    231106 G96  0.1+  0.3+    231107 I52  0.5-  0.5-
231105 G96  0.7-  0.5+    231106 G96  0.1-  0.0     231107 I52  0.6-  0.4-
231105 G96  0.3-  0.2+    231106 G96  0.0   0.2-
231105 G96  0.0   0.1-    231106 G96  0.2+  0.1+
Ephemeris:
2023 VW2                 a,e,i = 1.92, 0.53, 8                   q = 0.9104
Date    TT    R. A. (2000) Decl.     Delta      r    Elong.  Phase     V
2023 10 08    13 59 32.9 -53 40 16   0.1405  0.9155    50.0   123.2    25.0
...
2023 10 23    10 37 00.4 -44 44 42   0.06791 0.9556    52.8   124.0    23.6
...
2023 10 31    08 21 39.1 -11 37 06   0.05823 0.9911    86.5    90.1    21.3
...
2023 11 06    07 17 15.5 +12 08 53   0.07352 1.0229   113.4    62.8    21.0
2023 11 07    07 08 58.1 +14 59 37   0.07736 1.0286   116.9    59.2    21.0
2023 11 08    07 01 12.7 +17 32 57   0.08144 1.0344   120.2    55.9    21.0
...
2023 11 14    06 23 15.6 +28 12 39   0.1098  1.0709   135.7    40.2    21.3
...
2023 11 22    05 47 32.6 +35 06 23   0.1545  1.1238   149.5    26.5    21.7
...
2023 12 07    05 06 12.0 +39 09 36   0.2551  1.2316   163.1    13.5    22.6
A. U. Tomatic                (C) Copyright 2023 MPC           M.P.E.C. 2023-V94
    
    
More information about the Iaude
mailing list